Location: Kiltepe
(36.4752°N, 30.0120°E)
Time: 17:15:10
(UTC+00:00)

Cosmos 1452 Rocket - Pass Details

Date: 03 August 2024
Orbit: 764 x 773 km, 74.1° (Epoch: 18 September)

Event Time Altitude Azimuth Distance (km) Brightness Sun altitude
Exits shadow 20:00:32 71° 311° (NW) 812 3.6 -28.7°
Drops below altitude 10° 20:05:33 10° 13° (NNE) 2,314 6.5 -29.2°
Sets 20:07:57 0° 16° (NNE) 3,246 7.3 -29.5°
